Tracking 18945 objects as of 20-Jan-2018
HD Live streaming from Space Station
objects crossing your sky now

FENGYUN 1C DEB

Track FENGYUN 1C DEB now!
10-day predictions


NORAD ID: 31502
Int'l Code: 1999-025BWR
Perigee: 838.6 km
Apogee: 954.1 km
Inclination: 99.3 °
Period: 102.8 minutes
Semi major axis: 7267 km
RCS: 0.005 m2 (small)
Launch date: May 10, 1999
Source: People's Republic of China (PRC)
Launch site: Taiyaun Space Center, China (TSC)

Note: This is SATELLITE DEBRIS
aabbcc
Your satellite tracking list
Your tracking list is empty




NASA's NSSDC Master Catalog

Two Line Element Set (TLE):
1 31502U 99025BWR 18019.53586761 +.00000397 +00000-0 +28691-3 0  9994
2 31502 099.2701 044.0113 0079440 303.6510 055.7094 14.01326999200765
Source of the keplerian elements: AFSPC